• In Deutschland
  • Länderverzeichnis
  • Für 7 Tage
  • Wassertemperatur
  • Satellitenkarten
  • Wetterkarte
  • Widgets
  • user-avatar
    Anmelden

    Stündliche Wetter Yopal

    Heute, 25 September, Montag

    Zeit Temperatur Niederschläge Wind Luftdruck Luftfeuchtigkeit
    00:00 +25°C° 1,2 mm 1 m/S 731 mmHg 91%
    01:00 +25°C° 0 mm 1 m/S 731 mmHg 91%
    02:00 +24°C° 0,3 mm 1 m/S 731 mmHg 90%
    03:00 +24°C° 0,3 mm 1 m/S 731 mmHg 90%
    04:00 +24°C° 0,3 mm 1 m/S 730 mmHg 89%
    05:00 +25°C° 0 mm 1 m/S 731 mmHg 87%
    06:00 +26°C° 0 mm 1 m/S 731 mmHg 84%
    07:00 +27°C° 0 mm 1 m/S 731 mmHg 79%
    08:00 +28°C° 0,2 mm 1 m/S 731 mmHg 73%
    09:00 +30°C° 0,2 mm 1 m/S 731 mmHg 66%
    10:00 +32°C° 0,2 mm 2 m/S 731 mmHg 60%
    11:00 +32°C° 0,3 mm 2 m/S 731 mmHg 61%
    12:00 +32°C° 0,3 mm 2 m/S 730 mmHg 61%
    13:00 +34°C° 0,3 mm 2 m/S 729 mmHg 62%
    14:00 +32°C° 0,2 mm 2 m/S 729 mmHg 65%
    15:00 +32°C° 0,2 mm 2 m/S 728 mmHg 68%
    16:00 +31°C° 0,2 mm 1 m/S 728 mmHg 71%
    17:00 +30°C° 0,8 mm 1 m/S 728 mmHg 77%
    18:00 +28°C° 0,8 mm 1 m/S 728 mmHg 84%
    19:00 +25°C° 0,8 mm 0 m/S 728 mmHg 90%
    20:00 +26°C° 0,9 mm 1 m/S 729 mmHg 90%
    21:00 +26°C° 0,9 mm 1 m/S 729 mmHg 91%
    22:00 +26°C° 0,9 mm 1 m/S 730 mmHg 91%
    23:00 +26°C° 1 mm 1 m/S 730 mmHg 91%

    Morgen, 26 September, Dienstag

    Zeit Temperatur Niederschläge Wind Luftdruck Luftfeuchtigkeit
    00:00 +25°C° 1 mm 1 m/S 730 mmHg 90%
    01:00 +23°C° 1 mm 0 m/S 729 mmHg 90%
    02:00 +25°C° 0,9 mm 1 m/S 729 mmHg 90%
    03:00 +25°C° 0,9 mm 1 m/S 729 mmHg 90%
    04:00 +25°C° 0,9 mm 1 m/S 729 mmHg 90%
    05:00 +25°C° 0,4 mm 1 m/S 730 mmHg 89%
    06:00 +24°C° 0,4 mm 0 m/S 730 mmHg 87%
    07:00 +24°C° 0,4 mm 0 m/S 730 mmHg 85%
    08:00 +28°C° 0,4 mm 1 m/S 731 mmHg 78%
    09:00 +30°C° 0,4 mm 1 m/S 731 mmHg 71%
    10:00 +32°C° 0,4 mm 1 m/S 731 mmHg 64%
    11:00 +32°C° 0,2 mm 1 m/S 731 mmHg 63%
    12:00 +32°C° 0,2 mm 2 m/S 730 mmHg 62%
    13:00 +34°C° 0,2 mm 2 m/S 729 mmHg 61%
    14:00 +32°C° 0,5 mm 2 m/S 729 mmHg 65%
    15:00 +32°C° 0,5 mm 2 m/S 728 mmHg 69%
    16:00 +31°C° 0,5 mm 2 m/S 728 mmHg 73%
    17:00 +29°C° 0,4 mm 1 m/S 728 mmHg 80%
    18:00 +28°C° 0,4 mm 1 m/S 728 mmHg 86%
    19:00 +26°C° 0,4 mm 1 m/S 729 mmHg 92%
    20:00 +26°C° 0,1 mm 1 m/S 729 mmHg 91%
    21:00 +26°C° 0,1 mm 1 m/S 730 mmHg 91%
    22:00 +25°C° 0,1 mm 1 m/S 730 mmHg 90%
    23:00 +25°C° 0 mm 1 m/S 730 mmHg 89%

    übermorgen, 27 September, Mittwoch

    Zeit Temperatur Niederschläge Wind Luftdruck Luftfeuchtigkeit
    00:00 +25°C° 0 mm 1 m/S 729 mmHg 88%
    01:00 +25°C° 0 mm 1 m/S 729 mmHg 87%
    02:00 +25°C° 0,1 mm 1 m/S 729 mmHg 86%
    03:00 +24°C° 0,1 mm 1 m/S 729 mmHg 84%
    04:00 +24°C° 0,1 mm 1 m/S 728 mmHg 83%
    05:00 +25°C° 0 mm 1 m/S 729 mmHg 80%
    06:00 +25°C° 0 mm 1 m/S 729 mmHg 77%
    07:00 +26°C° 0 mm 1 m/S 730 mmHg 74%
    08:00 +28°C° 0 mm 1 m/S 730 mmHg 67%
    09:00 +30°C° 0 mm 2 m/S 730 mmHg 60%
    10:00 +32°C° 0 mm 2 m/S 731 mmHg 54%
    11:00 +34°C° 0 mm 2 m/S 730 mmHg 53%
    12:00 +34°C° 0 mm 2 m/S 729 mmHg 52%
    13:00 +35°C° 0 mm 2 m/S 728 mmHg 52%
    14:00 +34°C° 0,4 mm 2 m/S 728 mmHg 58%
    15:00 +32°C° 0,4 mm 2 m/S 727 mmHg 65%
    16:00 +31°C° 0,4 mm 2 m/S 727 mmHg 72%
    17:00 +30°C° 0,3 mm 2 m/S 727 mmHg 78%
    18:00 +28°C° 0,3 mm 1 m/S 728 mmHg 85%
    19:00 +27°C° 0,3 mm 1 m/S 729 mmHg 91%
    20:00 +26°C° 0 mm 1 m/S 729 mmHg 91%
    21:00 +26°C° 0 mm 1 m/S 730 mmHg 90%
    22:00 +26°C° 0 mm 1 m/S 730 mmHg 90%
    23:00 +26°C° 0,5 mm 1 m/S 730 mmHg 89%

    28 September, Donnerstag

    Zeit Temperatur Niederschläge Wind Luftdruck Luftfeuchtigkeit
    00:00 +25°C° 0,5 mm 1 m/S 729 mmHg 87%
    01:00 +25°C° 0,5 mm 1 m/S 729 mmHg 86%
    02:00 +25°C° 0,1 mm 1 m/S 729 mmHg 86%
    03:00 +25°C° 0,1 mm 1 m/S 728 mmHg 85%
    04:00 +25°C° 0,1 mm 1 m/S 728 mmHg 84%
    05:00 +25°C° 0 mm 1 m/S 729 mmHg 82%
    06:00 +26°C° 0 mm 1 m/S 730 mmHg 79%
    07:00 +27°C° 0 mm 1 m/S 730 mmHg 76%
    08:00 +29°C° 0 mm 1 m/S 730 mmHg 70%
    09:00 +30°C° 0 mm 2 m/S 731 mmHg 64%
    10:00 +32°C° 0 mm 2 m/S 731 mmHg 58%
    11:00 +34°C° 0,1 mm 2 m/S 730 mmHg 57%
    12:00 +34°C° 0,1 mm 2 m/S 729 mmHg 57%
    13:00 +34°C° 0,1 mm 2 m/S 728 mmHg 57%
    14:00 +34°C° 0,1 mm 2 m/S 727 mmHg 61%
    15:00 +32°C° 0,1 mm 2 m/S 727 mmHg 65%
    16:00 +32°C° 0,1 mm 2 m/S 726 mmHg 69%
    17:00 +30°C° 0,5 mm 1 m/S 727 mmHg 76%
    18:00 +29°C° 0,5 mm 1 m/S 728 mmHg 83%
    19:00 +27°C° 0,5 mm 1 m/S 728 mmHg 89%
    20:00 +27°C° 1 mm 1 m/S 729 mmHg 90%
    21:00 +26°C° 1 mm 1 m/S 729 mmHg 91%
    22:00 +26°C° 1 mm 1 m/S 730 mmHg 92%
    23:00 +26°C° 0,5 mm 1 m/S 729 mmHg 92%

    29 September, Freitag

    Zeit Temperatur Niederschläge Wind Luftdruck Luftfeuchtigkeit
    00:00 +26°C° 0,5 mm 1 m/S 729 mmHg 92%
    01:00 +25°C° 0,5 mm 1 m/S 729 mmHg 92%
    02:00 +25°C° 0,1 mm 1 m/S 729 mmHg 91%
    03:00 +25°C° 0,1 mm 1 m/S 729 mmHg 91%
    04:00 +25°C° 0,1 mm 1 m/S 729 mmHg 90%
    05:00 +25°C° 0 mm 1 m/S 729 mmHg 87%
    06:00 +26°C° 0 mm 1 m/S 730 mmHg 84%
    07:00 +27°C° 0 mm 1 m/S 731 mmHg 81%
    08:00 +29°C° 0 mm 1 m/S 731 mmHg 73%
    09:00 +31°C° 0 mm 2 m/S 731 mmHg 65%
    10:00 +32°C° 0 mm 2 m/S 731 mmHg 56%
    11:00 +34°C° 0,1 mm 2 m/S 730 mmHg 55%
    12:00 +34°C° 0,1 mm 2 m/S 729 mmHg 55%
    13:00 +35°C° 0,1 mm 2 m/S 728 mmHg 54%
    14:00 +34°C° 0,1 mm 2 m/S 728 mmHg 57%
    15:00 +34°C° 0,1 mm 2 m/S 727 mmHg 61%
    16:00 +32°C° 0,1 mm 2 m/S 727 mmHg 65%
    17:00 +31°C° 0,5 mm 1 m/S 727 mmHg 73%
    18:00 +29°C° 0,5 mm 1 m/S 728 mmHg 81%
    19:00 +27°C° 0,5 mm 1 m/S 729 mmHg 89%
    20:00 +27°C° 0,5 mm 1 m/S 729 mmHg 90%
    21:00 +26°C° 0,5 mm 1 m/S 729 mmHg 91%
    22:00 +26°C° 0,5 mm 1 m/S 729 mmHg 91%
    23:00 +26°C° 0,5 mm 1 m/S 729 mmHg 90%

    30 September, Samstag

    Zeit Temperatur Niederschläge Wind Luftdruck Luftfeuchtigkeit
    00:00 +26°C° 0,5 mm 1 m/S 729 mmHg 90%
    01:00 +25°C° 0,5 mm 1 m/S 729 mmHg 89%
    02:00 +25°C° 0,2 mm 1 m/S 729 mmHg 88%
    03:00 +25°C° 0,2 mm 1 m/S 729 mmHg 86%
    04:00 +25°C° 0,2 mm 1 m/S 729 mmHg 85%
    05:00 +26°C° 0,1 mm 1 m/S 729 mmHg 82%
    06:00 +26°C° 0,1 mm 1 m/S 730 mmHg 80%
    07:00 +27°C° 0,1 mm 1 m/S 730 mmHg 78%
    08:00 +28°C° 0,1 mm 1 m/S 730 mmHg 72%
    09:00 +30°C° 0,1 mm 1 m/S 730 mmHg 66%
    10:00 +32°C° 0,1 mm 1 m/S 730 mmHg 60%
    11:00 +32°C° 0,1 mm 2 m/S 729 mmHg 59%
    12:00 +34°C° 0,1 mm 2 m/S 729 mmHg 58%
    13:00 +34°C° 0,1 mm 2 m/S 728 mmHg 57%
    14:00 +32°C° 0,5 mm 2 m/S 728 mmHg 64%
    15:00 +31°C° 0,5 mm 2 m/S 727 mmHg 71%
    16:00 +30°C° 0,5 mm 2 m/S 727 mmHg 77%
    17:00 +29°C° 0,6 mm 1 m/S 727 mmHg 82%
    18:00 +28°C° 0,6 mm 1 m/S 728 mmHg 87%
    19:00 +26°C° 0,6 mm 1 m/S 728 mmHg 91%
    20:00 +26°C° 0,3 mm 1 m/S 729 mmHg 91%
    21:00 +26°C° 0,3 mm 1 m/S 729 mmHg 90%
    22:00 +26°C° 0,3 mm 1 m/S 729 mmHg 89%
    23:00 +26°C° 0,5 mm 1 m/S 729 mmHg 89%
    Mehr zeigen